This demonstration page uses our WeatherBlox Daily Observations layout. Learn more.

Left ArrowRight Arrow

44.8408, -93.29828

Hourly Observations for November 1, 2020

Temp ( °F °C ) Dew Point ( °F °C ) Humidity (%) Winds ( mph kmh ) Pressure ( in mb ) Visibility ( mi km ) Precip ( " mm )
12:53 am 00:53 Windy with Snow Likely 33 0.6 18 -7.8 54 54 NW 22 35 30.04 1017 9 14 0.00 0.00
1:53 am 01:53 Cloudy 32 0 17 -8.3 54 54 NW 31 50 30.08 1019 10 16 0.00 0.00
1:53 am 01:53 Mostly Cloudy 31 -0.6 17 -8.3 56 56 NW 22 35 30.11 1020 10 16 0.00 0.00
2:53 am 02:53 Partly Cloudy 29 -1.7 16 -8.9 58 58 NW 22 35 30.14 1021 10 16 0.00 0.00
3:53 am 03:53 Mostly Clear 28 -2.2 16 -8.9 60 60 NW 24 39 30.17 1022 10 16 0.00 0.00
4:53 am 04:53 Mostly Clear 27 -2.8 16 -8.9 63 63 NW 16 26 30.21 1023 10 16 0.00 0.00
5:53 am 05:53 Partly Cloudy 27 -2.8 16 -8.9 63 63 NW 21 33 30.26 1025 10 16 0.00 0.00
6:53 am 06:53 Partly Cloudy 26 -3.3 14 -10 60 60 NNW 20 31 30.30 1026 10 16 0.00 0.00
7:53 am 07:53 Partly Cloudy 26 -3.3 15 -9.4 63 63 NNW 21 33 30.34 1028 10 16 0.00 0.00
8:53 am 08:53 Partly Cloudy 28 -2.2 14 -10 56 56 NW 18 30 30.38 1029 10 16 0.00 0.00
9:53 am 09:53 Partly Cloudy 30 -1.1 14 -10 51 51 NW 18 30 30.42 1030 10 16 0.00 0.00
10:53 am 10:53 Mostly Sunny 32 0 14 -10 47 47 NW 18 30 30.44 1031 10 16 0.00 0.00
11:53 am 11:53 Mostly Sunny 34 1.1 14 -10 44 44 NW 20 31 30.45 1031 10 16 0.00 0.00
12:53 pm 12:53 Mostly Sunny 35 1.7 11 -11.7 37 37 NW 17 28 30.45 1031 10 16 0.00 0.00
1:53 pm 13:53 Mostly Sunny 37 2.8 11 -11.7 34 34 W 16 26 30.45 1031 10 16 0.00 0.00
2:53 pm 14:53 Mostly Sunny 38 3.3 10 -12.2 31 31 NW 13 20 30.45 1031 10 16 0.00 0.00
3:53 pm 15:53 Mostly Sunny 38 3.3 10 -12.2 31 31 NW 10 17 30.46 1032 10 16 0.00 0.00
4:53 pm 16:53 Mostly Sunny 34 1.1 11 -11.7 38 38 WNW 9 15 30.46 1032 10 16 0.00 0.00
5:53 pm 17:53 Mostly Clear 33 0.6 13 -10.6 43 43 W 5 7 30.46 1032 10 16 0.00 0.00
6:53 pm 18:53 Mostly Clear 32 0 15 -9.4 50 50 W 7 11 30.46 1032 10 16 0.00 0.00
7:53 pm 19:53 Clear 31 -0.6 16 -8.9 54 54 WSW 5 7 30.44 1031 10 16 0.00 0.00
8:53 pm 20:53 Clear 30 -1.1 17 -8.3 58 58 WSW 3 6 30.43 1031 10 16 0.00 0.00
9:53 pm 21:53 Clear 30 -1.1 18 -7.8 61 61 WSW 6 9 30.43 1031 10 16 0.00 0.00
10:53 pm 22:53 Clear 29 -1.7 18 -7.8 63 63 S 3 6 30.40 1030 10 16 0.00 0.00
11:53 pm 23:53 Clear 28 -2.2 18 -7.8 66 66 SSW 3 6 30.38 1029 10 16 0.00 0.00

Powered by AerisWeather